Weather in Police

Poland     53°34′04″N   14°33′35″E
temp.,
°C
wind,
m/s
gust,
m/s
humid.,
%
clouds,
%
prec.,
mm/h
press.,
hPa
HPBL,
m
4 march, thu
thu401:00+6wnw4109438 0.1 1018398
04:00+4wnw588885 0.0 1017599
07:00+2wnw468893 0.0 1016607
10:00+2wnw3682100 0.0 1016653
13:00+3wnw3679100 0.1 1016700
16:00+3nnw3585100 0.1 1016540
19:00+1nne5996100 0.1 1016536
22:000nne288596 0.0 1019464
5 march, fri
fri501:00−1n227849 0.0 102039
04:00−1nw258315 0.0 1021125
07:00−1nw388410 0.0 1023234
10:00+3nnw57530 0.0 10241109
13:00+4nnw68470 0.0 10251475
16:00+2nnw58530 0.0 10261060
19:00−1nnw25730 0.0 1028109
22:00−1wnw23720 0.0 103087
6 march, sat
sat601:00−2wnw25730 0.0 1031130
04:00−2w23720 0.0 103197
07:00−2wsw26690 0.0 1031160
10:00+3wsw47430 0.0 1031646
13:00+5wsw694822 0.0 10301257
16:00+5w58580 0.0 10281107
19:00+3w4108546 0.1 1027573
22:00+1w4119278 0.1 1026508
7 march, sun
sun701:000w5128939 0.1 1025603
04:00−1w411896 0.0 1023629
07:00+1w598050 0.0 10221032
10:00+2w6973100 0.0 10211064
13:00+3w61071100 0.1 10201213
16:00+2w51078100 0.0 1019870
19:00+2wnw51097100 0.3 1018671
22:00+2wnw51097100 0.9 1019628
8 march, mon
mon801:000ne2489100 2.0 1020202
04:00−2n119148 0.0 102022
07:00−1nnw118574 0.0 102222
10:00+3nne235326 0.0 10241086
13:00+5nne124448 0.0 10251381
16:00+4n225096 0.0 1025675
19:000e226798 0.0 102535
22:00−1se257187 0.0 1026127